Theta_e
324 322 322 321 326 327 328 332 334 332 334 338 339 340 335 339 337 334 331 333 334 335 335 334 331 330 329 330 330 322 323 311 311 314 316 319 319 320 320 320 320 320 318 319
322 323 324 322 325 329 333 334 334 333 334 335 334 334 335 337 340 339 339 336 336 336 336 334 331 329 330 331 330 326 326 321 311 312 315 319 319 320 321 321 321 320 319 319
324 324 324 324 324 332 332 333 332 334 335 334 330 330 333 338 340 341 341 341 340 340 339 337 333 332 330 331 331 330 327 327 316 311 313 316 319 319 320 321 321 320 320 319
324 324 324 323 325 330 331 328 332 335 332 334 328 333 330 336 336 339 340 341 341 341 341 340 339 337 332 332 332 332 329 330 323 313 312 315 316 319 321 321 321 321 319 319
324 325 324 325 327 329 330 331 332 333 333 332 333 332 333 335 334 333 333 339 340 340 340 339 340 340 334 332 333 333 330 330 327 318 313 315 316 319 321 320 320 319 319 319
322 324 324 325 328 330 331 329 325 327 328 332 333 334 334 333 333 331 332 333 332 333 333 335 336 334 333 332 335 326 332 331 330 323 316 313 315 317 317 316 318 318 320 320
322 324 322 327 330 328 327 326 330 332 331 332 330 337 333 330 330 332 332 333 333 334 335 335 336 334 335 336 334 326 327 332 331 327 320 316 315 315 314 316 317 318 318 318
323 324 325 325 331 331 330 328 329 335 332 330 329 338 332 330 332 332 333 334 334 333 333 334 336 335 335 335 335 330 327 332 332 329 323 320 318 318 318 317 316 317 317 317
322 324 325 330 330 329 331 330 327 327 326 328 326 328 326 332 331 333 333 334 333 332 332 334 335 335 335 336 335 333 331 334 333 329 326 322 321 321 320 320 319 319 319 319
322 324 323 330 330 330 329 327 330 325 331 333 329 331 330 331 331 332 332 332 332 331 333 334 335 336 336 336 336 335 335 334 334 330 327 324 323 322 321 321 320 321 321 320
320 322 323 329 329 329 330 330 328 324 326 332 334 331 325 330 329 330 331 332 331 332 333 334 334 335 336 336 336 337 336 335 334 331 328 325 323 323 322 321 321 321 321 321
323 320 323 326 327 327 328 329 326 328 329 329 329 331 330 330 330 330 331 332 331 331 332 335 335 335 335 334 334 335 336 335 334 331 329 325 324 324 323 321 320 321 321 321
327 325 328 328 325 326 330 330 327 323 326 331 331 330 330 332 330 331 331 332 331 331 331 332 334 335 333 334 334 334 335 335 334 332 329 326 323 323 323 321 320 321 321 321
328 323 324 325 325 325 331 330 330 327 328 329 329 328 328 331 330 331 331 332 330 330 331 333 334 333 332 334 334 333 334 334 333 332 328 325 323 322 322 321 320 320 321 321
320 324 328 327 326 330 330 330 330 330 328 332 330 329 328 331 330 331 332 332 329 328 333 334 333 334 333 332 335 334 334 333 332 330 328 323 319 318 319 319 320 320 320 320
324 325 330 332 332 332 332 331 332 332 331 329 333 332 331 334 332 331 331 330 326 328 331 332 331 333 333 332 334 333 333 332 331 329 324 322 322 322 321 321 321 321 320 320
328 329 329 329 331 328 325 331 334 334 333 334 335 331 334 333 333 332 329 329 328 329 331 331 332 332 333 333 334 333 331 329 329 325 324 323 323 323 321 321 321 321 322 323
332 330 328 332 329 333 325 331 333 335 336 335 332 333 333 332 332 330 329 329 329 332 331 332 332 333 333 333 332 331 330 329 326 324 324 322 321 321 322 325 325 325 324 320
327 329 329 332 329 328 331 332 331 332 331 335 331 332 331 331 331 330 329 328 329 331 333 331 331 332 332 331 331 330 329 327 324 323 323 323 324 324 326 326 325 321 317 314
325 322 327 328 332 334 329 333 333 330 332 334 332 333 332 332 332 330 331 332 330 332 332 330 332 332 332 330 330 329 325 323 324 326 326 327 328 327 325 319 314 314 313 313
329 327 331 328 331 330 328 333 332 335 333 334 333 333 333 332 332 331 330 333 333 334 333 331 332 331 330 329 328 325 325 326 326 326 327 327 323 313 310 312 313 312 312 312
330 331 332 329 332 334 333 334 333 330 333 335 334 334 335 334 332 330 332 333 332 333 332 330 330 330 328 325 325 325 325 326 326 324 319 311 309 311 312 312 311 309 312 312
330 327 329 330 330 328 333 336 335 335 335 335 334 334 331 330 330 329 330 333 332 334 332 329 330 327 325 325 325 325 326 324 317 309 307 310 311 311 310 309 309 311 312 311
328 331 331 331 328 331 334 334 335 335 334 335 335 332 329 330 334 334 333 333 333 334 332 330 328 326 325 326 326 326 319 309 308 307 309 311 310 309 310 310 310 311 311 310
328 329 328 329 329 331 331 332 333 333 333 334 333 331 332 331 333 333 332 332 333 333 332 330 328 327 327 326 326 316 307 307 308 308 309 309 309 310 311 311 310 310 309 307
331 328 330 329 329 330 331 332 333 332 328 330 332 332 333 333 333 333 329 331 332 332 332 329 328 327 327 325 313 307 306 308 308 308 309 309 310 310 311 310 310 310 308 306
Wind_Speed
3 4 3 8 10 5 2 3 4 3 4 6 11 13 9 16 23 17 25 35 36 35 33 32 29 25 22 18 13 8 9 8 7 9 9 11 11 10 9 8 10 10 11 12
4 2 4 5 1 4 3 3 5 1 2 4 0 10 2 7 18 24 28 33 36 37 37 36 33 31 29 22 14 10 9 9 7 9 10 11 11 13 11 11 11 11 11 12
3 4 10 5 5 3 3 4 1 2 2 2 5 7 4 3 4 18 28 31 34 38 40 41 39 36 33 26 17 13 10 9 7 8 10 12 15 15 15 13 12 11 11 12
2 4 5 8 3 3 4 3 5 4 4 2 3 4 4 3 7 9 22 29 37 38 38 39 42 44 37 29 17 15 14 12 9 9 11 12 14 15 15 14 14 12 12 11
6 4 7 4 5 0 3 4 5 3 3 1 5 3 7 5 6 6 15 27 27 31 35 42 45 39 38 27 11 15 19 17 13 10 11 13 14 15 15 15 15 12 12 12
5 5 3 4 3 4 6 4 7 4 3 4 5 3 6 3 4 8 8 14 16 22 24 24 26 28 27 21 18 11 24 20 15 10 10 12 11 13 16 17 16 13 13 13
6 5 4 3 3 4 4 6 3 4 5 4 4 2 8 6 5 4 13 21 25 27 29 21 15 23 20 22 24 8 11 25 15 9 9 8 8 10 11 12 12 14 14 13
3 7 2 4 2 3 3 4 5 1 1 5 4 4 5 4 3 5 9 15 19 26 30 25 13 15 17 21 26 10 16 21 16 9 7 8 8 8 8 10 11 11 11 10
5 5 3 2 3 3 1 2 3 6 3 2 3 7 7 2 1 5 9 14 20 26 29 26 12 9 12 20 22 12 13 12 13 8 7 6 7 8 7 9 10 11 11 11
7 2 3 4 4 6 2 4 3 3 0 3 5 5 5 4 6 3 7 16 21 22 27 25 13 8 6 14 18 13 3 4 5 8 9 8 9 8 9 10 11 12 11 12
5 4 5 1 1 5 1 1 5 4 4 4 2 7 5 5 7 6 6 11 16 18 22 18 12 5 5 10 21 24 10 1 3 8 7 10 11 12 12 13 13 13 14 14
1 5 1 6 3 2 1 3 5 5 4 2 4 6 3 3 6 3 4 8 12 15 16 13 9 5 3 7 15 25 20 10 6 4 7 11 14 15 16 13 13 13 16 17
6 3 3 8 6 4 1 2 5 4 3 5 4 6 2 2 5 5 5 8 12 15 15 13 8 10 13 9 8 15 20 11 8 6 7 13 15 16 15 13 13 13 16 18
5 3 6 5 6 3 5 3 3 4 3 3 5 6 4 6 7 4 5 7 13 17 18 16 14 12 10 7 3 5 6 6 8 5 10 12 14 12 13 13 13 14 16 19
4 3 4 4 6 3 3 1 3 5 3 4 3 6 7 7 3 2 4 7 14 16 17 19 18 9 5 7 5 5 5 5 6 3 8 10 12 11 9 10 12 15 19 22
3 1 1 2 2 3 3 4 3 2 3 7 4 6 2 3 2 2 5 3 3 9 13 16 17 12 8 7 4 5 2 3 1 5 5 8 11 13 13 14 16 20 22 23
3 4 3 4 4 4 4 3 3 2 4 1 4 3 3 0 1 3 4 5 7 6 9 11 12 8 8 6 4 4 6 6 2 2 4 7 12 15 16 17 19 20 21 22
5 4 2 3 3 0 6 1 2 5 2 4 3 4 4 0 2 4 6 10 11 11 9 8 8 6 8 8 6 6 5 2 1 4 8 10 11 12 15 19 21 19 19 18
3 4 3 3 3 5 2 1 1 0 5 3 3 6 2 1 4 7 4 9 9 8 6 6 4 3 4 4 3 2 3 4 5 7 8 10 11 15 18 19 18 17 19 15
5 6 4 2 2 4 3 2 2 3 5 5 8 10 11 3 2 8 8 4 4 4 1 3 1 2 1 1 1 2 3 5 7 10 11 12 16 16 17 16 16 13 12 13
3 3 3 2 2 6 3 5 2 2 7 10 15 16 11 4 8 26 7 10 9 4 3 4 6 4 4 3 1 3 3 5 8 11 11 13 13 14 13 11 9 11 13 11
1 2 1 2 1 4 2 3 4 4 8 11 13 13 11 14 26 24 20 23 15 11 9 8 9 7 6 5 3 4 5 6 8 9 11 11 10 9 9 9 12 12 9 9
1 4 3 6 5 6 9 14 16 18 14 8 11 9 15 24 23 18 18 21 11 16 12 11 11 9 8 5 3 6 8 8 8 10 10 7 7 9 10 11 10 8 8 10
2 4 2 1 4 12 13 16 19 19 18 17 13 14 20 23 22 19 19 11 16 17 14 14 13 10 6 3 4 8 7 8 7 8 8 6 8 10 9 9 8 8 10 14
3 6 3 5 10 14 15 13 17 19 19 19 16 17 19 14 16 13 11 13 17 17 16 15 13 10 7 4 8 8 7 5 5 7 7 9 10 7 8 7 7 7 12 15
9 6 5 6 5 6 14 16 13 22 16 11 12 10 10 7 6 5 7 10 18 17 18 16 14 10 6 6 8 8 5 1 5 6 7 9 9 8 7 9 6 9 11 12
Wind_Direction
74 74 241 251 221 213 191 198 244 225 212 156 231 266 251 239 219 218 221 225 232 243 251 252 246 247 245 244 257 291 313 301 274 266 269 263 270 265 278 291 290 314 328 341
26 301 249 321 96 148 148 255 268 114 12 160 68 268 331 283 223 215 227 235 240 247 252 254 253 246 244 242 248 269 292 304 291 282 272 262 264 258 264 275 277 300 319 327
158 266 305 16 354 113 217 201 107 58 45 89 347 313 350 333 239 222 237 249 251 255 258 258 254 252 246 239 244 269 283 296 304 283 273 266 264 270 271 279 275 291 306 319
285 299 334 342 323 132 332 243 122 117 60 278 11 279 314 306 296 246 244 249 254 259 263 265 260 251 244 239 242 266 270 285 305 295 280 275 264 275 281 281 278 294 303 310
256 312 326 331 298 182 291 61 92 96 130 107 354 56 275 338 315 283 261 261 266 272 276 276 265 257 245 224 224 261 273 276 287 303 292 282 285 283 284 289 283 299 305 314
228 262 222 223 24 72 120 55 39 53 70 21 334 84 294 299 290 308 313 319 323 330 328 319 268 249 236 220 218 184 262 258 270 300 311 295 292 291 291 291 287 301 307 312
342 282 316 219 73 25 85 65 353 3 8 241 300 22 246 289 311 272 298 322 335 344 350 347 285 239 222 205 198 146 234 248 250 277 309 307 308 309 300 302 301 305 309 314
143 325 1 342 107 173 40 138 145 231 263 270 318 244 262 230 303 318 319 329 340 347 355 357 315 261 223 203 191 209 203 236 240 250 290 317 324 327 312 317 306 309 321 320
160 271 297 34 113 107 189 42 148 105 25 40 263 295 319 272 279 347 342 340 342 354 358 358 336 272 225 200 190 237 250 247 234 236 269 300 321 329 334 334 330 330 332 331
212 301 255 169 89 44 134 146 34 14 163 287 291 285 244 310 292 303 327 330 352 3 7 9 2 329 261 229 199 230 281 70 227 242 261 306 305 314 328 324 332 335 336 328
140 118 280 59 219 204 83 340 58 116 124 175 272 276 225 259 278 217 272 332 349 5 10 6 4 331 286 232 231 233 253 316 283 244 273 314 310 298 306 318 328 328 326 329
115 130 222 237 266 220 142 177 133 121 242 160 149 273 281 279 319 212 302 341 352 1 6 3 0 354 287 271 244 233 245 267 336 283 280 318 311 301 298 315 330 328 324 326
180 31 34 348 358 358 334 110 96 103 75 192 136 267 166 250 247 244 331 348 357 351 353 354 335 306 324 308 243 238 243 278 298 292 310 321 313 305 299 310 322 322 323 325
110 104 143 185 213 200 312 315 142 138 114 180 225 285 299 253 243 264 334 5 359 350 349 347 348 337 323 349 263 257 271 272 298 298 333 330 330 319 302 302 313 321 324 321
92 126 150 212 234 226 248 322 172 211 192 172 272 209 263 242 254 203 14 18 4 358 359 360 7 9 357 10 71 27 343 298 294 278 336 346 2 1 333 330 332 324 318 316
9 170 90 267 263 334 264 298 260 132 132 263 285 280 272 315 299 232 45 44 19 353 359 9 16 39 59 58 71 16 353 315 307 335 353 4 349 339 337 327 321 318 316 315
73 123 84 267 338 5 352 281 322 102 72 317 237 286 278 262 323 11 348 305 334 329 352 8 20 46 85 91 91 74 61 63 34 1 341 329 325 323 323 328 327 322 321 321
130 102 103 225 17 40 242 19 212 131 172 294 290 273 266 262 24 317 292 334 330 312 339 1 16 43 86 88 88 81 62 34 341 317 311 316 322 324 327 327 325 328 334 336
63 117 99 147 189 279 273 166 46 176 271 225 267 297 322 245 303 272 278 268 292 304 328 357 12 65 95 91 73 47 359 316 318 320 318 322 322 320 325 329 335 341 340 349
54 64 111 110 161 218 255 26 12 121 292 221 231 240 217 186 22 264 252 321 316 307 351 4 235 124 128 133 227 269 331 323 322 322 326 330 326 328 332 339 343 353 357 356
6 10 103 106 220 292 273 314 334 84 243 219 224 235 213 180 263 303 293 313 309 217 203 196 195 183 186 174 208 265 320 311 317 320 323 327 328 334 347 2 3 357 355 1
143 111 198 79 51 312 240 305 190 248 281 242 226 233 247 285 305 306 280 291 285 216 190 194 203 193 183 190 229 279 321 331 339 329 332 339 350 7 5 4 354 359 16 6
317 176 188 173 222 245 272 258 277 296 290 295 249 244 306 312 318 304 296 295 210 196 199 207 213 209 190 200 257 314 330 334 338 342 351 6 8 0 358 4 27 18 11 3
244 172 192 30 251 252 275 288 289 291 287 292 286 288 308 308 322 302 303 258 197 198 204 214 211 207 210 233 324 329 333 335 348 7 22 23 1 3 13 18 22 14 10 2
190 148 181 268 287 292 290 296 304 311 305 288 286 301 312 300 305 302 310 215 207 205 215 212 209 226 244 295 326 331 330 337 358 26 29 10 11 23 14 8 359 7 6 6
191 188 165 226 262 251 288 306 306 324 309 279 285 298 312 276 293 314 10 223 208 213 216 207 206 229 261 306 323 325 319 334 6 23 30 22 17 10 1 351 346 356 0 4